Location: Newark
(43.6583°N, 1.6617°E)
Time: 03:19:06
(UTC+00:00)

Tiros 1 despin weight - All Passes

Search period start: 21 August 2019 00:00
Search period end: 31 August 2019 00:00
Orbit: 594 x 642 km, 48.2° (Epoch: 20 August)

Date Brightness Start Highest point End Pass type
(mag) Time Alt. Az. Time Alt. Az. Time Alt. Az.
21 Aug - 00:02:16 10° SW 00:06:39 58° SSE 00:11:06 10° ENE visible
21 Aug - 01:43:53 10° W 01:48:18 55° NNW 01:52:48 10° ENE visible
21 Aug - 03:25:55 10° WNW 03:30:21 50° N 03:34:51 10° E visible
21 Aug - 05:07:33 10° WNW 05:12:08 75° SSW 05:16:47 10° ESE daylight
21 Aug - 06:49:59 10° W 06:53:12 19° SW 06:56:26 10° S daylight
21 Aug - 22:38:31 10° SSW 22:42:04 24° SE 22:45:40 10° E night (unlit)
22 Aug - 00:18:46 10° WSW 00:23:14 88° NNW 00:27:47 10° ENE visible
22 Aug - 02:00:45 10° W 02:05:07 47° N 02:09:33 10° ENE visible
22 Aug - 03:42:37 10° WNW 03:47:08 62° NNE 03:51:43 10° E visible
22 Aug - 05:24:17 10° WNW 05:28:40 45° SW 05:33:06 10° SE daylight
22 Aug - 22:54:15 10° SW 22:58:27 42° SE 23:02:42 10° ENE night (unlit)
23 Aug - 00:35:29 10° W 00:39:55 63° NNW 00:44:26 10° ENE visible
23 Aug - 02:17:34 10° WNW 02:21:56 47° N 02:26:22 10° ENE visible
23 Aug - 03:59:15 10° WNW 04:03:50 86° NNE 04:08:28 10° ESE visible
23 Aug - 05:41:15 10° W 05:45:04 26° SW 05:48:55 10° SSE daylight
23 Aug - 21:31:09 10° S 21:33:58 17° SE 21:36:49 10° E night (unlit)
23 Aug - 23:10:32 10° SW 23:14:56 72° SSE 23:19:26 10° ENE night (unlit)
24 Aug - 00:52:20 10° W 00:56:42 50° N 01:01:08 10° ENE visible
24 Aug - 02:34:18 10° WNW 02:38:45 54° NNE 02:43:14 10° E visible
24 Aug - 04:15:55 10° WNW 04:20:25 61° SSW 04:24:59 10° SE visible
24 Aug - 05:58:56 10° WSW 06:01:21 14° SW 06:03:46 10° SSW daylight
24 Aug - 21:46:24 10° SSW 21:50:16 30° SE 21:54:12 10° E night (unlit)
24 Aug - 23:27:08 10° WSW 23:31:34 76° NNW 23:36:05 10° ENE night (unlit)
25 Aug - 01:09:11 10° WNW 01:13:31 46° N 01:17:55 10° ENE visible
25 Aug - 02:50:58 10° WNW 02:55:30 70° NNE 03:00:05 10° ESE visible
25 Aug - 04:32:43 10° WNW 04:36:54 36° SW 04:41:07 10° SSE visible
25 Aug - 20:24:36 10° SSE 20:25:55 11° SE 20:27:15 10° ESE night (unlit)
25 Aug - 22:02:24 10° SW 22:06:42 54° SSE 22:11:04 10° ENE night (unlit)
25 Aug - 23:43:55 10° W 23:48:18 56° NNW 23:52:45 10° ENE night (unlit)
26 Aug - 01:25:58 10° WNW 01:30:20 49° N 01:34:46 10° E visible
26 Aug - 03:07:36 10° WNW 03:12:09 80° SSW 03:16:44 10° ESE visible
26 Aug - 04:49:54 10° W 04:53:15 20° SW 04:56:37 10° S daylight
26 Aug - 20:38:46 10° S 20:42:09 22° SE 20:45:33 10° E visible
26 Aug - 22:18:50 10° WSW 22:23:16 87° SSE 22:27:45 10° ENE night (unlit)
27 Aug - 00:00:47 10° W 00:05:06 48° N 00:09:29 10° ENE night (unlit)
27 Aug - 01:42:40 10° WNW 01:47:07 59° NNE 01:51:38 10° E visible
27 Aug - 03:24:19 10° WNW 03:28:41 49° SSW 03:33:07 10° SE visible
27 Aug - 05:08:50 10° WSW 05:09:28 10° SW 05:10:07 10° SW daylight
27 Aug - 20:54:25 10° SSW 20:58:30 39° SE 21:02:39 10° ENE visible
27 Aug - 22:35:32 10° W 22:39:56 65° NNW 22:44:24 10° ENE night (unlit)
28 Aug - 00:17:36 10° WNW 00:21:55 46° N 00:26:18 10° ENE night (unlit)
28 Aug - 01:59:19 10° WNW 02:03:50 81° NNE 02:08:24 10° ESE visible
28 Aug - 03:41:14 10° W 03:45:06 28° SW 03:49:01 10° SSE visible
28 Aug - 19:31:32 10° S 19:34:04 15° SE 19:36:36 10° E visible
28 Aug - 21:10:37 10° SW 21:14:59 67° SSE 21:19:25 10° ENE visible
28 Aug - 22:52:21 10° W 22:56:42 51° N 23:01:05 10° ENE night (unlit)
29 Aug - 00:34:22 10° WNW 00:38:44 52° N 00:43:10 10° E night (unlit)
29 Aug - 02:15:58 10° WNW 02:20:26 66° SSW 02:24:58 10° SE visible
29 Aug - 03:58:45 10° W 04:01:24 15° SW 04:04:04 10° S visible
29 Aug - 19:46:36 10° SSW 19:50:21 28° SE 19:54:08 10° E visible
29 Aug - 21:27:11 10° WSW 21:31:36 80° NNW 21:36:04 10° ENE visible
29 Aug - 23:09:13 10° WNW 23:13:30 46° N 23:17:51 10° ENE night (unlit)
30 Aug - 00:51:01 10° WNW 00:55:29 67° NNE 01:00:01 10° ESE night (unlit)
30 Aug - 02:32:44 10° WNW 02:36:56 38° SW 02:41:10 10° SSE visible
30 Aug - 20:02:30 10° SW 20:06:46 49° SSE 20:11:03 10° ENE visible
30 Aug - 21:43:57 10° W 21:48:18 58° NNW 21:52:43 10° ENE visible
30 Aug - 23:26:01 10° WNW 23:30:20 48° N 23:34:42 10° E night (unlit)
